owner,sensor,date,latitude,longitude,vertical_datum,sea_water_temperature,qcFlag 
WAVCIS,ioos:station:WAVCIS:CSI16:2,2012-02-01T00:00:00Z,29.4012,-89.0355,10.0,18.526,11111222 
WAVCIS,ioos:station:WAVCIS:CSI16:2,2012-02-01T00:15:00Z,29.4012,-89.0355,10.0,18.531,11111222 
WAVCIS,ioos:station:WAVCIS:CSI16:2,2012-02-01T00:30:00Z,29.4012,-89.0355,10.0,18.515,11111222 
WAVCIS,ioos:station:WAVCIS:CSI16:2,2012-02-01T00:45:00Z,29.4012,-89.0355,10.0,18.524,11111222 
WAVCIS,ioos:station:WAVCIS:CSI16:2,2012-02-01T01:00:00Z,29.4012,-89.0355,10.0,18.522,11111222 
WAVCIS,ioos:station:WAVCIS:CSI16:2,2012-02-01T01:15:00Z,29.4012,-89.0355,10.0,18.526,11111222 
WAVCIS,ioos:station:WAVCIS:CSI16:2,2012-02-01T01:30:00Z,29.4012,-89.0355,10.0,18.508,11111222 
WAVCIS,ioos:station:WAVCIS:CSI16:2,2012-02-01T01:45:00Z,29.4012,-89.0355,10.0,18.455,11111222 
WAVCIS,ioos:station:WAVCIS:CSI16:2,2012-02-01T02:00:00Z,29.4012,-89.0355,10.0,18.392,11111222 
WAVCIS,ioos:station:WAVCIS:CSI16:2,2012-02-01T02:15:00Z,29.4012,-89.0355,10.0,18.209,11111222 
WAVCIS,ioos:station:WAVCIS:CSI16:2,2012-02-01T02:30:00Z,29.4012,-89.0355,10.0,18.171,11111222 
WAVCIS,ioos:station:WAVCIS:CSI16:2,2012-02-01T02:45:00Z,29.4012,-89.0355,10.0,18.154,11111222 
WAVCIS,ioos:station:WAVCIS:CSI16:2,2012-02-01T03:00:00Z,29.4012,-89.0355,10.0,18.147,11111222 
WAVCIS,ioos:station:WAVCIS:CSI16:2,2012-02-01T03:15:00Z,29.4012,-89.0355,10.0,18.14,11111222 
WAVCIS,ioos:station:WAVCIS:CSI16:2,2012-02-01T03:30:00Z,29.4012,-89.0355,10.0,18.13,11111222 
WAVCIS,ioos:station:WAVCIS:CSI16:2,2012-02-01T03:45:00Z,29.4012,-89.0355,10.0,18.121,11111222 
WAVCIS,ioos:station:WAVCIS:CSI16:2,2012-02-01T04:00:00Z,29.4012,-89.0355,10.0,18.111,11111222 
WAVCIS,ioos:station:WAVCIS:CSI16:2,2012-02-01T04:15:00Z,29.4012,-89.0355,10.0,18.096,11111222 
WAVCIS,ioos:station:WAVCIS:CSI16:2,2012-02-01T04:30:00Z,29.4012,-89.0355,10.0,18.087,11111222 
WAVCIS,ioos:station:WAVCIS:CSI16:2,2012-02-01T04:45:00Z,29.4012,-89.0355,10.0,18.053,11111222 
WAVCIS,ioos:station:WAVCIS:CSI16:2,2012-02-01T05:00:00Z,29.4012,-89.0355,10.0,17.965,11111222 
WAVCIS,ioos:station:WAVCIS:CSI16:2,2012-02-01T05:15:00Z,29.4012,-89.0355,10.0,17.839,11111222 
WAVCIS,ioos:station:WAVCIS:CSI16:2,2012-02-01T05:30:00Z,29.4012,-89.0355,10.0,17.673,11111222 
WAVCIS,ioos:station:WAVCIS:CSI16:2,2012-02-01T05:45:00Z,29.4012,-89.0355,10.0,17.623,11111222 
WAVCIS,ioos:station:WAVCIS:CSI16:2,2012-02-01T06:00:00Z,29.4012,-89.0355,10.0,17.49,11111222 
WAVCIS,ioos:station:WAVCIS:CSI16:2,2012-02-01T06:15:00Z,29.4012,-89.0355,10.0,17.511,11111222 
WAVCIS,ioos:station:WAVCIS:CSI16:2,2012-02-01T06:30:00Z,29.4012,-89.0355,10.0,17.441,11111222 
WAVCIS,ioos:station:WAVCIS:CSI16:2,2012-02-01T06:45:00Z,29.4012,-89.0355,10.0,17.442,11111222 
WAVCIS,ioos:station:WAVCIS:CSI16:2,2012-02-01T07:00:00Z,29.4012,-89.0355,10.0,17.441,11111222 
WAVCIS,ioos:station:WAVCIS:CSI16:2,2012-02-01T07:15:00Z,29.4012,-89.0355,10.0,17.489,11111222 
WAVCIS,ioos:station:WAVCIS:CSI16:2,2012-02-01T07:30:00Z,29.4012,-89.0355,10.0,17.457,11111222 
WAVCIS,ioos:station:WAVCIS:CSI16:2,2012-02-01T07:45:00Z,29.4012,-89.0355,10.0,17.488,11111222 
WAVCIS,ioos:station:WAVCIS:CSI16:2,2012-02-01T08:00:00Z,29.4012,-89.0355,10.0,17.506,11111222 
WAVCIS,ioos:station:WAVCIS:CSI16:2,2012-02-01T08:15:00Z,29.4012,-89.0355,10.0,17.483,11111222 
WAVCIS,ioos:station:WAVCIS:CSI16:2,2012-02-01T08:30:00Z,29.4012,-89.0355,10.0,17.51,11111222 
WAVCIS,ioos:station:WAVCIS:CSI16:2,2012-02-01T08:45:00Z,29.4012,-89.0355,10.0,17.47,11111222 
WAVCIS,ioos:station:WAVCIS:CSI16:2,2012-02-01T09:00:00Z,29.4012,-89.0355,10.0,17.483,11111222 
WAVCIS,ioos:station:WAVCIS:CSI16:2,2012-02-01T09:15:00Z,29.4012,-89.0355,10.0,17.48,11111222 
WAVCIS,ioos:station:WAVCIS:CSI16:2,2012-02-01T09:30:00Z,29.4012,-89.0355,10.0,17.458,11111222 
WAVCIS,ioos:station:WAVCIS:CSI16:2,2012-02-01T09:45:00Z,29.4012,-89.0355,10.0,17.441,11111222 
WAVCIS,ioos:station:WAVCIS:CSI16:2,2012-02-01T10:00:00Z,29.4012,-89.0355,10.0,17.41,11111222 
WAVCIS,ioos:station:WAVCIS:CSI16:2,2012-02-01T10:15:00Z,29.4012,-89.0355,10.0,17.355,11111222 
WAVCIS,ioos:station:WAVCIS:CSI16:2,2012-02-01T10:30:00Z,29.4012,-89.0355,10.0,17.383,11111222 
WAVCIS,ioos:station:WAVCIS:CSI16:2,2012-02-01T10:45:00Z,29.4012,-89.0355,10.0,17.353,11111222 
WAVCIS,ioos:station:WAVCIS:CSI16:2,2012-02-01T11:00:00Z,29.4012,-89.0355,10.0,17.365,11111222 
WAVCIS,ioos:station:WAVCIS:CSI16:2,2012-02-01T11:15:00Z,29.4012,-89.0355,10.0,17.42,11111222 
WAVCIS,ioos:station:WAVCIS:CSI16:2,2012-02-01T11:30:00Z,29.4012,-89.0355,10.0,17.392,11111222 
WAVCIS,ioos:station:WAVCIS:CSI16:2,2012-02-01T11:45:00Z,29.4012,-89.0355,10.0,17.378,11111222 
WAVCIS,ioos:station:WAVCIS:CSI16:2,2012-02-01T12:00:00Z,29.4012,-89.0355,10.0,17.357,11111222 
WAVCIS,ioos:station:WAVCIS:CSI16:2,2012-02-01T12:15:00Z,29.4012,-89.0355,10.0,17.348,11111222 
WAVCIS,ioos:station:WAVCIS:CSI16:2,2012-02-01T12:30:00Z,29.4012,-89.0355,10.0,17.356,11111222 
WAVCIS,ioos:station:WAVCIS:CSI16:2,2012-02-01T12:45:00Z,29.4012,-89.0355,10.0,17.38,11111222 
WAVCIS,ioos:station:WAVCIS:CSI16:2,2012-02-01T13:00:00Z,29.4012,-89.0355,10.0,17.411,11111222 
WAVCIS,ioos:station:WAVCIS:CSI16:2,2012-02-01T13:15:00Z,29.4012,-89.0355,10.0,17.445,11111222 
WAVCIS,ioos:station:WAVCIS:CSI16:2,2012-02-01T13:30:00Z,29.4012,-89.0355,10.0,17.48,11111222 
WAVCIS,ioos:station:WAVCIS:CSI16:2,2012-02-01T13:45:00Z,29.4012,-89.0355,10.0,17.5,11111222 
WAVCIS,ioos:station:WAVCIS:CSI16:2,2012-02-01T14:00:00Z,29.4012,-89.0355,10.0,17.522,11111222 
WAVCIS,ioos:station:WAVCIS:CSI16:2,2012-02-01T14:15:00Z,29.4012,-89.0355,10.0,17.538,11111222 
WAVCIS,ioos:station:WAVCIS:CSI16:2,2012-02-01T14:30:00Z,29.4012,-89.0355,10.0,17.568,11111222 
WAVCIS,ioos:station:WAVCIS:CSI16:2,2012-02-01T14:45:00Z,29.4012,-89.0355,10.0,17.601,11111222 
WAVCIS,ioos:station:WAVCIS:CSI16:2,2012-02-01T15:00:00Z,29.4012,-89.0355,10.0,17.63,11111222 
WAVCIS,ioos:station:WAVCIS:CSI16:2,2012-02-01T15:15:00Z,29.4012,-89.0355,10.0,17.643,11111222 
WAVCIS,ioos:station:WAVCIS:CSI16:2,2012-02-01T15:30:00Z,29.4012,-89.0355,10.0,17.665,11111222 
WAVCIS,ioos:station:WAVCIS:CSI16:2,2012-02-01T15:45:00Z,29.4012,-89.0355,10.0,17.685,11111222 
WAVCIS,ioos:station:WAVCIS:CSI16:2,2012-02-01T16:00:00Z,29.4012,-89.0355,10.0,17.713,11111222 
WAVCIS,ioos:station:WAVCIS:CSI16:2,2012-02-01T16:15:00Z,29.4012,-89.0355,10.0,17.708,11111222 
WAVCIS,ioos:station:WAVCIS:CSI16:2,2012-02-01T16:30:00Z,29.4012,-89.0355,10.0,17.706,11111222 
WAVCIS,ioos:station:WAVCIS:CSI16:2,2012-02-01T16:45:00Z,29.4012,-89.0355,10.0,17.676,11111222 
WAVCIS,ioos:station:WAVCIS:CSI16:2,2012-02-01T17:00:00Z,29.4012,-89.0355,10.0,17.649,11111222 
WAVCIS,ioos:station:WAVCIS:CSI16:2,2012-02-01T17:15:00Z,29.4012,-89.0355,10.0,17.669,11111222 
WAVCIS,ioos:station:WAVCIS:CSI16:2,2012-02-01T17:30:00Z,29.4012,-89.0355,10.0,17.674,11111222 
WAVCIS,ioos:station:WAVCIS:CSI16:2,2012-02-01T17:45:00Z,29.4012,-89.0355,10.0,17.667,11111222 
WAVCIS,ioos:station:WAVCIS:CSI16:2,2012-02-01T18:00:00Z,29.4012,-89.0355,10.0,17.675,11111222 
WAVCIS,ioos:station:WAVCIS:CSI16:2,2012-02-01T18:15:00Z,29.4012,-89.0355,10.0,17.714,11111222 
WAVCIS,ioos:station:WAVCIS:CSI16:2,2012-02-01T18:30:00Z,29.4012,-89.0355,10.0,17.734,11111222 
WAVCIS,ioos:station:WAVCIS:CSI16:2,2012-02-01T18:45:00Z,29.4012,-89.0355,10.0,17.711,11111222 
WAVCIS,ioos:station:WAVCIS:CSI16:2,2012-02-01T19:00:00Z,29.4012,-89.0355,10.0,17.73,11111222 
WAVCIS,ioos:station:WAVCIS:CSI16:2,2012-02-01T19:15:00Z,29.4012,-89.0355,10.0,17.73,11111222 
WAVCIS,ioos:station:WAVCIS:CSI16:2,2012-02-01T19:30:00Z,29.4012,-89.0355,10.0,17.733,11111222 
WAVCIS,ioos:station:WAVCIS:CSI16:2,2012-02-01T19:45:00Z,29.4012,-89.0355,10.0,17.749,11111222 
WAVCIS,ioos:station:WAVCIS:CSI16:2,2012-02-01T20:00:00Z,29.4012,-89.0355,10.0,17.727,11111222 
WAVCIS,ioos:station:WAVCIS:CSI16:2,2012-02-01T20:15:00Z,29.4012,-89.0355,10.0,17.734,11111222 
WAVCIS,ioos:station:WAVCIS:CSI16:2,2012-02-01T20:30:00Z,29.4012,-89.0355,10.0,17.71,11111222 
WAVCIS,ioos:station:WAVCIS:CSI16:2,2012-02-01T20:45:00Z,29.4012,-89.0355,10.0,17.705,11111222 
WAVCIS,ioos:station:WAVCIS:CSI16:2,2012-02-01T21:00:00Z,29.4012,-89.0355,10.0,17.715,11111222 
WAVCIS,ioos:station:WAVCIS:CSI16:2,2012-02-01T21:15:00Z,29.4012,-89.0355,10.0,17.722,11111222 
WAVCIS,ioos:station:WAVCIS:CSI16:2,2012-02-01T21:30:00Z,29.4012,-89.0355,10.0,17.721,11111222 
WAVCIS,ioos:station:WAVCIS:CSI16:2,2012-02-01T21:45:00Z,29.4012,-89.0355,10.0,17.72,11111222 
WAVCIS,ioos:station:WAVCIS:CSI16:2,2012-02-01T22:00:00Z,29.4012,-89.0355,10.0,17.723,11111222 
WAVCIS,ioos:station:WAVCIS:CSI16:2,2012-02-01T22:15:00Z,29.4012,-89.0355,10.0,17.728,11111222 
WAVCIS,ioos:station:WAVCIS:CSI16:2,2012-02-01T22:30:00Z,29.4012,-89.0355,10.0,17.725,11111222 
WAVCIS,ioos:station:WAVCIS:CSI16:2,2012-02-01T22:45:00Z,29.4012,-89.0355,10.0,17.718,11111222 
WAVCIS,ioos:station:WAVCIS:CSI16:2,2012-02-01T23:00:00Z,29.4012,-89.0355,10.0,17.714,11111222 
WAVCIS,ioos:station:WAVCIS:CSI16:2,2012-02-01T23:15:00Z,29.4012,-89.0355,10.0,17.715,11111222 
WAVCIS,ioos:station:WAVCIS:CSI16:2,2012-02-01T23:30:00Z,29.4012,-89.0355,10.0,17.716,11111222 
WAVCIS,ioos:station:WAVCIS:CSI16:2,2012-02-01T23:45:00Z,29.4012,-89.0355,10.0,17.715,11111222 
WAVCIS,ioos:station:WAVCIS:CSI16:2,2012-02-02T00:00:00Z,29.4012,-89.0355,10.0,17.711,11111222 
WAVCIS,ioos:station:WAVCIS:CSI16:2,2012-02-02T00:15:00Z,29.4012,-89.0355,10.0,17.707,11111222 
WAVCIS,ioos:station:WAVCIS:CSI16:2,2012-02-02T00:30:00Z,29.4012,-89.0355,10.0,17.723,11111222 
WAVCIS,ioos:station:WAVCIS:CSI16:2,2012-02-02T00:45:00Z,29.4012,-89.0355,10.0,17.71,11111222 
WAVCIS,ioos:station:WAVCIS:CSI16:2,2012-02-02T01:00:00Z,29.4012,-89.0355,10.0,17.708,11111222 
WAVCIS,ioos:station:WAVCIS:CSI16:2,2012-02-02T01:15:00Z,29.4012,-89.0355,10.0,17.701,11111222 
WAVCIS,ioos:station:WAVCIS:CSI16:2,2012-02-02T01:30:00Z,29.4012,-89.0355,10.0,17.69,11111222 
WAVCIS,ioos:station:WAVCIS:CSI16:2,2012-02-02T01:45:00Z,29.4012,-89.0355,10.0,17.662,11111222 
WAVCIS,ioos:station:WAVCIS:CSI16:2,2012-02-02T02:00:00Z,29.4012,-89.0355,10.0,17.658,11111222 
WAVCIS,ioos:station:WAVCIS:CSI16:2,2012-02-02T02:15:00Z,29.4012,-89.0355,10.0,17.651,11111222 
WAVCIS,ioos:station:WAVCIS:CSI16:2,2012-02-02T02:30:00Z,29.4012,-89.0355,10.0,17.635,11111222 
WAVCIS,ioos:station:WAVCIS:CSI16:2,2012-02-02T02:45:00Z,29.4012,-89.0355,10.0,17.606,11111222 
WAVCIS,ioos:station:WAVCIS:CSI16:2,2012-02-02T03:00:00Z,29.4012,-89.0355,10.0,17.62,11111222 
WAVCIS,ioos:station:WAVCIS:CSI16:2,2012-02-02T03:15:00Z,29.4012,-89.0355,10.0,17.621,11111222 
WAVCIS,ioos:station:WAVCIS:CSI16:2,2012-02-02T03:30:00Z,29.4012,-89.0355,10.0,17.632,11111222 
WAVCIS,ioos:station:WAVCIS:CSI16:2,2012-02-02T03:45:00Z,29.4012,-89.0355,10.0,17.601,11111222 
WAVCIS,ioos:station:WAVCIS:CSI16:2,2012-02-02T04:00:00Z,29.4012,-89.0355,10.0,17.638,11111222 
WAVCIS,ioos:station:WAVCIS:CSI16:2,2012-02-02T04:15:00Z,29.4012,-89.0355,10.0,17.64,11111222 
WAVCIS,ioos:station:WAVCIS:CSI16:2,2012-02-02T04:30:00Z,29.4012,-89.0355,10.0,17.655,11111222 
WAVCIS,ioos:station:WAVCIS:CSI16:2,2012-02-02T04:45:00Z,29.4012,-89.0355,10.0,17.635,11111222 
WAVCIS,ioos:station:WAVCIS:CSI16:2,2012-02-02T05:00:00Z,29.4012,-89.0355,10.0,17.612,11111222 
WAVCIS,ioos:station:WAVCIS:CSI16:2,2012-02-02T05:15:00Z,29.4012,-89.0355,10.0,17.601,11111222 
WAVCIS,ioos:station:WAVCIS:CSI16:2,2012-02-02T05:30:00Z,29.4012,-89.0355,10.0,17.547,11111222 
WAVCIS,ioos:station:WAVCIS:CSI16:2,2012-02-02T05:45:00Z,29.4012,-89.0355,10.0,17.534,11111222 
WAVCIS,ioos:station:WAVCIS:CSI16:2,2012-02-02T06:00:00Z,29.4012,-89.0355,10.0,17.482,11111222 
WAVCIS,ioos:station:WAVCIS:CSI16:2,2012-02-02T06:15:00Z,29.4012,-89.0355,10.0,17.475,11111222 
WAVCIS,ioos:station:WAVCIS:CSI16:2,2012-02-02T06:30:00Z,29.4012,-89.0355,10.0,17.46,11111222 
WAVCIS,ioos:station:WAVCIS:CSI16:2,2012-02-02T06:45:00Z,29.4012,-89.0355,10.0,17.479,11111222 
WAVCIS,ioos:station:WAVCIS:CSI16:2,2012-02-02T07:00:00Z,29.4012,-89.0355,10.0,17.452,11111222 
WAVCIS,ioos:station:WAVCIS:CSI16:2,2012-02-02T07:15:00Z,29.4012,-89.0355,10.0,17.447,11111222 
WAVCIS,ioos:station:WAVCIS:CSI16:2,2012-02-02T07:30:00Z,29.4012,-89.0355,10.0,17.439,11111222 
WAVCIS,ioos:station:WAVCIS:CSI16:2,2012-02-02T07:45:00Z,29.4012,-89.0355,10.0,17.429,11111222 
WAVCIS,ioos:station:WAVCIS:CSI16:2,2012-02-02T08:00:00Z,29.4012,-89.0355,10.0,17.423,11111222 
WAVCIS,ioos:station:WAVCIS:CSI16:2,2012-02-02T08:15:00Z,29.4012,-89.0355,10.0,17.414,11111222 
WAVCIS,ioos:station:WAVCIS:CSI16:2,2012-02-02T08:30:00Z,29.4012,-89.0355,10.0,17.404,11111222 
WAVCIS,ioos:station:WAVCIS:CSI16:2,2012-02-02T08:45:00Z,29.4012,-89.0355,10.0,17.398,11111222 
WAVCIS,ioos:station:WAVCIS:CSI16:2,2012-02-02T09:00:00Z,29.4012,-89.0355,10.0,17.381,11111222 
WAVCIS,ioos:station:WAVCIS:CSI16:2,2012-02-02T09:15:00Z,29.4012,-89.0355,10.0,17.374,11111222 
WAVCIS,ioos:station:WAVCIS:CSI16:2,2012-02-02T09:30:00Z,29.4012,-89.0355,10.0,17.361,11111222 
WAVCIS,ioos:station:WAVCIS:CSI16:2,2012-02-02T09:45:00Z,29.4012,-89.0355,10.0,17.361,11111222 
WAVCIS,ioos:station:WAVCIS:CSI16:2,2012-02-02T10:00:00Z,29.4012,-89.0355,10.0,17.362,11111222 
WAVCIS,ioos:station:WAVCIS:CSI16:2,2012-02-02T10:15:00Z,29.4012,-89.0355,10.0,17.345,11111222 
WAVCIS,ioos:station:WAVCIS:CSI16:2,2012-02-02T10:30:00Z,29.4012,-89.0355,10.0,17.321,11111222 
WAVCIS,ioos:station:WAVCIS:CSI16:2,2012-02-02T10:45:00Z,29.4012,-89.0355,10.0,17.296,11111222 
WAVCIS,ioos:station:WAVCIS:CSI16:2,2012-02-02T11:00:00Z,29.4012,-89.0355,10.0,17.266,11111222 
WAVCIS,ioos:station:WAVCIS:CSI16:2,2012-02-02T11:15:00Z,29.4012,-89.0355,10.0,17.276,11111222 
WAVCIS,ioos:station:WAVCIS:CSI16:2,2012-02-02T11:30:00Z,29.4012,-89.0355,10.0,17.253,11111222 
WAVCIS,ioos:station:WAVCIS:CSI16:2,2012-02-02T11:45:00Z,29.4012,-89.0355,10.0,17.248,11111222 
WAVCIS,ioos:station:WAVCIS:CSI16:2,2012-02-02T12:00:00Z,29.4012,-89.0355,10.0,17.208,11111222 
WAVCIS,ioos:station:WAVCIS:CSI16:2,2012-02-02T12:15:00Z,29.4012,-89.0355,10.0,17.216,11111222 
WAVCIS,ioos:station:WAVCIS:CSI16:2,2012-02-02T12:30:00Z,29.4012,-89.0355,10.0,17.223,11111222 
WAVCIS,ioos:station:WAVCIS:CSI16:2,2012-02-02T12:45:00Z,29.4012,-89.0355,10.0,17.246,11111222 
WAVCIS,ioos:station:WAVCIS:CSI16:2,2012-02-02T13:00:00Z,29.4012,-89.0355,10.0,17.251,11111222 
WAVCIS,ioos:station:WAVCIS:CSI16:2,2012-02-02T13:15:00Z,29.4012,-89.0355,10.0,17.261,11111222 
WAVCIS,ioos:station:WAVCIS:CSI16:2,2012-02-02T13:30:00Z,29.4012,-89.0355,10.0,17.278,11111222 
WAVCIS,ioos:station:WAVCIS:CSI16:2,2012-02-02T13:45:00Z,29.4012,-89.0355,10.0,17.292,11111222 
WAVCIS,ioos:station:WAVCIS:CSI16:2,2012-02-02T14:00:00Z,29.4012,-89.0355,10.0,17.291,11111222 
WAVCIS,ioos:station:WAVCIS:CSI16:2,2012-02-02T14:15:00Z,29.4012,-89.0355,10.0,17.278,11111222 
WAVCIS,ioos:station:WAVCIS:CSI16:2,2012-02-02T14:30:00Z,29.4012,-89.0355,10.0,17.27,11111222 
WAVCIS,ioos:station:WAVCIS:CSI16:2,2012-02-02T14:45:00Z,29.4012,-89.0355,10.0,17.272,11111222 
WAVCIS,ioos:station:WAVCIS:CSI16:2,2012-02-02T15:00:00Z,29.4012,-89.0355,10.0,17.283,11111222 
WAVCIS,ioos:station:WAVCIS:CSI16:2,2012-02-02T15:15:00Z,29.4012,-89.0355,10.0,17.294,11111222 
WAVCIS,ioos:station:WAVCIS:CSI16:2,2012-02-02T15:30:00Z,29.4012,-89.0355,10.0,17.3,11111222 
WAVCIS,ioos:station:WAVCIS:CSI16:2,2012-02-02T15:45:00Z,29.4012,-89.0355,10.0,17.32,11111222 
WAVCIS,ioos:station:WAVCIS:CSI16:2,2012-02-02T16:00:00Z,29.4012,-89.0355,10.0,17.334,11111222 
WAVCIS,ioos:station:WAVCIS:CSI16:2,2012-02-02T16:15:00Z,29.4012,-89.0355,10.0,17.344,11111222 
WAVCIS,ioos:station:WAVCIS:CSI16:2,2012-02-02T16:30:00Z,29.4012,-89.0355,10.0,17.362,11111222 
WAVCIS,ioos:station:WAVCIS:CSI16:2,2012-02-02T16:45:00Z,29.4012,-89.0355,10.0,17.378,11111222 
WAVCIS,ioos:station:WAVCIS:CSI16:2,2012-02-02T17:00:00Z,29.4012,-89.0355,10.0,17.418,11111222 
WAVCIS,ioos:station:WAVCIS:CSI16:2,2012-02-02T17:15:00Z,29.4012,-89.0355,10.0,17.425,11111222 
WAVCIS,ioos:station:WAVCIS:CSI16:2,2012-02-02T17:30:00Z,29.4012,-89.0355,10.0,17.447,11111222 
WAVCIS,ioos:station:WAVCIS:CSI16:2,2012-02-02T17:45:00Z,29.4012,-89.0355,10.0,17.492,11111222 
WAVCIS,ioos:station:WAVCIS:CSI16:2,2012-02-02T18:00:00Z,29.4012,-89.0355,10.0,17.522,11111222 
WAVCIS,ioos:station:WAVCIS:CSI16:2,2012-02-02T18:15:00Z,29.4012,-89.0355,10.0,17.531,11111222 
WAVCIS,ioos:station:WAVCIS:CSI16:2,2012-02-02T18:30:00Z,29.4012,-89.0355,10.0,17.534,11111222 
WAVCIS,ioos:station:WAVCIS:CSI16:2,2012-02-02T18:45:00Z,29.4012,-89.0355,10.0,17.546,11111222 
WAVCIS,ioos:station:WAVCIS:CSI16:2,2012-02-02T19:00:00Z,29.4012,-89.0355,10.0,17.568,11111222 
WAVCIS,ioos:station:WAVCIS:CSI16:2,2012-02-02T19:15:00Z,29.4012,-89.0355,10.0,17.576,11111222 
WAVCIS,ioos:station:WAVCIS:CSI16:2,2012-02-02T19:30:00Z,29.4012,-89.0355,10.0,17.593,11111222 
WAVCIS,ioos:station:WAVCIS:CSI16:2,2012-02-02T19:45:00Z,29.4012,-89.0355,10.0,17.6,11111222 
WAVCIS,ioos:station:WAVCIS:CSI16:2,2012-02-02T20:00:00Z,29.4012,-89.0355,10.0,17.599,11111222 
WAVCIS,ioos:station:WAVCIS:CSI16:2,2012-02-02T20:15:00Z,29.4012,-89.0355,10.0,17.606,11111222 
WAVCIS,ioos:station:WAVCIS:CSI16:2,2012-02-02T20:30:00Z,29.4012,-89.0355,10.0,17.611,11111222 
WAVCIS,ioos:station:WAVCIS:CSI16:2,2012-02-02T20:45:00Z,29.4012,-89.0355,10.0,17.606,11111222 
WAVCIS,ioos:station:WAVCIS:CSI16:2,2012-02-02T21:00:00Z,29.4012,-89.0355,10.0,17.61,11111222 
WAVCIS,ioos:station:WAVCIS:CSI16:2,2012-02-02T21:15:00Z,29.4012,-89.0355,10.0,17.613,11111222 
WAVCIS,ioos:station:WAVCIS:CSI16:2,2012-02-02T21:30:00Z,29.4012,-89.0355,10.0,17.622,11111222 
WAVCIS,ioos:station:WAVCIS:CSI16:2,2012-02-02T21:45:00Z,29.4012,-89.0355,10.0,17.624,11111222 
WAVCIS,ioos:station:WAVCIS:CSI16:2,2012-02-02T22:00:00Z,29.4012,-89.0355,10.0,17.615,11111222 
WAVCIS,ioos:station:WAVCIS:CSI16:2,2012-02-02T22:15:00Z,29.4012,-89.0355,10.0,17.615,11111222 
WAVCIS,ioos:station:WAVCIS:CSI16:2,2012-02-02T22:30:00Z,29.4012,-89.0355,10.0,17.616,11111222 
WAVCIS,ioos:station:WAVCIS:CSI16:2,2012-02-02T22:45:00Z,29.4012,-89.0355,10.0,17.619,11111222 
WAVCIS,ioos:station:WAVCIS:CSI16:2,2012-02-02T23:00:00Z,29.4012,-89.0355,10.0,17.618,11111222 
WAVCIS,ioos:station:WAVCIS:CSI16:2,2012-02-02T23:15:00Z,29.4012,-89.0355,10.0,17.625,11111222 
WAVCIS,ioos:station:WAVCIS:CSI16:2,2012-02-02T23:30:00Z,29.4012,-89.0355,10.0,17.621,11111222 
WAVCIS,ioos:station:WAVCIS:CSI16:2,2012-02-02T23:45:00Z,29.4012,-89.0355,10.0,17.622,11111222 
WAVCIS,ioos:station:WAVCIS:CSI16:2,2012-02-03T00:00:00Z,29.4012,-89.0355,10.0,17.619,11111222 
WAVCIS,ioos:station:WAVCIS:CSI16:2,2012-02-03T00:15:00Z,29.4012,-89.0355,10.0,17.624,11111222 
WAVCIS,ioos:station:WAVCIS:CSI16:2,2012-02-03T00:30:00Z,29.4012,-89.0355,10.0,17.632,11111222 
WAVCIS,ioos:station:WAVCIS:CSI16:2,2012-02-03T00:45:00Z,29.4012,-89.0355,10.0,17.689,11111222 
WAVCIS,ioos:station:WAVCIS:CSI16:2,2012-02-03T01:00:00Z,29.4012,-89.0355,10.0,17.67,11111222 
WAVCIS,ioos:station:WAVCIS:CSI16:2,2012-02-03T01:15:00Z,29.4012,-89.0355,10.0,17.627,11111222 
WAVCIS,ioos:station:WAVCIS:CSI16:2,2012-02-03T01:30:00Z,29.4012,-89.0355,10.0,17.662,11111222 
WAVCIS,ioos:station:WAVCIS:CSI16:2,2012-02-03T01:45:00Z,29.4012,-89.0355,10.0,17.681,11111222 
WAVCIS,ioos:station:WAVCIS:CSI16:2,2012-02-03T02:00:00Z,29.4012,-89.0355,10.0,17.658,11111222 
WAVCIS,ioos:station:WAVCIS:CSI16:2,2012-02-03T02:15:00Z,29.4012,-89.0355,10.0,17.7,11111222 
WAVCIS,ioos:station:WAVCIS:CSI16:2,2012-02-03T02:30:00Z,29.4012,-89.0355,10.0,17.676,11111222 
WAVCIS,ioos:station:WAVCIS:CSI16:2,2012-02-03T02:45:00Z,29.4012,-89.0355,10.0,17.689,11111222 
WAVCIS,ioos:station:WAVCIS:CSI16:2,2012-02-03T03:00:00Z,29.4012,-89.0355,10.0,17.681,11111222 
WAVCIS,ioos:station:WAVCIS:CSI16:2,2012-02-03T03:15:00Z,29.4012,-89.0355,10.0,17.682,11111222 
WAVCIS,ioos:station:WAVCIS:CSI16:2,2012-02-03T03:30:00Z,29.4012,-89.0355,10.0,17.74,11111222 
WAVCIS,ioos:station:WAVCIS:CSI16:2,2012-02-03T03:45:00Z,29.4012,-89.0355,10.0,17.753,11111222 
WAVCIS,ioos:station:WAVCIS:CSI16:2,2012-02-03T04:00:00Z,29.4012,-89.0355,10.0,17.759,11111222 
WAVCIS,ioos:station:WAVCIS:CSI16:2,2012-02-03T04:15:00Z,29.4012,-89.0355,10.0,17.71,11111222 
WAVCIS,ioos:station:WAVCIS:CSI16:2,2012-02-03T04:30:00Z,29.4012,-89.0355,10.0,17.716,11111222 
WAVCIS,ioos:station:WAVCIS:CSI16:2,2012-02-03T04:45:00Z,29.4012,-89.0355,10.0,17.72,11111222 
WAVCIS,ioos:station:WAVCIS:CSI16:2,2012-02-03T05:00:00Z,29.4012,-89.0355,10.0,17.707,11111222 
WAVCIS,ioos:station:WAVCIS:CSI16:2,2012-02-03T05:15:00Z,29.4012,-89.0355,10.0,17.729,11111222 
WAVCIS,ioos:station:WAVCIS:CSI16:2,2012-02-03T05:30:00Z,29.4012,-89.0355,10.0,17.732,11111222 
WAVCIS,ioos:station:WAVCIS:CSI16:2,2012-02-03T05:45:00Z,29.4012,-89.0355,10.0,17.731,11111222 
WAVCIS,ioos:station:WAVCIS:CSI16:2,2012-02-03T06:00:00Z,29.4012,-89.0355,10.0,17.712,11111222 
WAVCIS,ioos:station:WAVCIS:CSI16:2,2012-02-03T06:15:00Z,29.4012,-89.0355,10.0,17.66,11111222 
WAVCIS,ioos:station:WAVCIS:CSI16:2,2012-02-03T06:30:00Z,29.4012,-89.0355,10.0,17.634,11111222 
WAVCIS,ioos:station:WAVCIS:CSI16:2,2012-02-03T06:45:00Z,29.4012,-89.0355,10.0,17.613,11111222 
WAVCIS,ioos:station:WAVCIS:CSI16:2,2012-02-03T07:00:00Z,29.4012,-89.0355,10.0,17.6,11111222 
WAVCIS,ioos:station:WAVCIS:CSI16:2,2012-02-03T07:15:00Z,29.4012,-89.0355,10.0,17.606,11111222 
WAVCIS,ioos:station:WAVCIS:CSI16:2,2012-02-03T07:30:00Z,29.4012,-89.0355,10.0,17.588,11111222 
WAVCIS,ioos:station:WAVCIS:CSI16:2,2012-02-03T07:45:00Z,29.4012,-89.0355,10.0,17.589,11111222 
WAVCIS,ioos:station:WAVCIS:CSI16:2,2012-02-03T08:00:00Z,29.4012,-89.0355,10.0,17.636,11111222 
WAVCIS,ioos:station:WAVCIS:CSI16:2,2012-02-03T08:15:00Z,29.4012,-89.0355,10.0,17.636,11111222 
WAVCIS,ioos:station:WAVCIS:CSI16:2,2012-02-03T08:30:00Z,29.4012,-89.0355,10.0,17.616,11111222 
WAVCIS,ioos:station:WAVCIS:CSI16:2,2012-02-03T08:45:00Z,29.4012,-89.0355,10.0,17.622,11111222 
WAVCIS,ioos:station:WAVCIS:CSI16:2,2012-02-03T09:00:00Z,29.4012,-89.0355,10.0,17.628,11111222 
WAVCIS,ioos:station:WAVCIS:CSI16:2,2012-02-03T09:15:00Z,29.4012,-89.0355,10.0,17.649,11111222 
WAVCIS,ioos:station:WAVCIS:CSI16:2,2012-02-03T09:30:00Z,29.4012,-89.0355,10.0,17.663,11111222 
WAVCIS,ioos:station:WAVCIS:CSI16:2,2012-02-03T09:45:00Z,29.4012,-89.0355,10.0,17.657,11111222 
WAVCIS,ioos:station:WAVCIS:CSI16:2,2012-02-03T10:00:00Z,29.4012,-89.0355,10.0,17.652,11111222 
WAVCIS,ioos:station:WAVCIS:CSI16:2,2012-02-03T10:15:00Z,29.4012,-89.0355,10.0,17.656,11111222 
WAVCIS,ioos:station:WAVCIS:CSI16:2,2012-02-03T10:30:00Z,29.4012,-89.0355,10.0,17.671,11111222 
WAVCIS,ioos:station:WAVCIS:CSI16:2,2012-02-03T10:45:00Z,29.4012,-89.0355,10.0,17.675,11111222 
WAVCIS,ioos:station:WAVCIS:CSI16:2,2012-02-03T11:00:00Z,29.4012,-89.0355,10.0,17.687,11111222 
WAVCIS,ioos:station:WAVCIS:CSI16:2,2012-02-03T11:15:00Z,29.4012,-89.0355,10.0,17.747,11111222 
WAVCIS,ioos:station:WAVCIS:CSI16:2,2012-02-03T11:30:00Z,29.4012,-89.0355,10.0,17.751,11111222 
WAVCIS,ioos:station:WAVCIS:CSI16:2,2012-02-03T11:45:00Z,29.4012,-89.0355,10.0,17.695,11111222 
WAVCIS,ioos:station:WAVCIS:CSI16:2,2012-02-03T12:00:00Z,29.4012,-89.0355,10.0,17.747,11111222 
WAVCIS,ioos:station:WAVCIS:CSI16:2,2012-02-03T12:15:00Z,29.4012,-89.0355,10.0,17.795,11111222 
WAVCIS,ioos:station:WAVCIS:CSI16:2,2012-02-03T12:30:00Z,29.4012,-89.0355,10.0,17.707,11111222 
WAVCIS,ioos:station:WAVCIS:CSI16:2,2012-02-03T12:45:00Z,29.4012,-89.0355,10.0,17.694,11111222 
WAVCIS,ioos:station:WAVCIS:CSI16:2,2012-02-03T13:00:00Z,29.4012,-89.0355,10.0,17.704,11111222 
WAVCIS,ioos:station:WAVCIS:CSI16:2,2012-02-03T13:15:00Z,29.4012,-89.0355,10.0,17.691,11111222 
WAVCIS,ioos:station:WAVCIS:CSI16:2,2012-02-03T13:30:00Z,29.4012,-89.0355,10.0,17.679,11111222 
WAVCIS,ioos:station:WAVCIS:CSI16:2,2012-02-03T13:45:00Z,29.4012,-89.0355,10.0,17.669,11111222 
WAVCIS,ioos:station:WAVCIS:CSI16:2,2012-02-03T14:00:00Z,29.4012,-89.0355,10.0,17.66,11111222 
WAVCIS,ioos:station:WAVCIS:CSI16:2,2012-02-03T14:15:00Z,29.4012,-89.0355,10.0,17.649,11111222 
WAVCIS,ioos:station:WAVCIS:CSI16:2,2012-02-03T14:30:00Z,29.4012,-89.0355,10.0,17.636,11111222 
WAVCIS,ioos:station:WAVCIS:CSI16:2,2012-02-03T14:45:00Z,29.4012,-89.0355,10.0,17.634,11111222 